owner,sensor,date,latitude,longitude,vertical_datum,sea_water_practical_salinity,qcFlag 
LUMCON,ioos:station:LUMCON:101:1,2015-10-01T05:00:00Z,29.2533,-90.6633,1.35,14.96,1111122 
LUMCON,ioos:station:LUMCON:101:1,2015-10-01T05:15:00Z,29.2533,-90.6633,1.35,14.78,1111122 
LUMCON,ioos:station:LUMCON:101:1,2015-10-01T05:30:00Z,29.2533,-90.6633,1.33,14.81,1111122 
LUMCON,ioos:station:LUMCON:101:1,2015-10-01T05:45:00Z,29.2533,-90.6633,1.32,14.84,1111122 
LUMCON,ioos:station:LUMCON:101:1,2015-10-01T06:00:00Z,29.2533,-90.6633,1.29,14.76,1111122 
LUMCON,ioos:station:LUMCON:101:1,2015-10-01T06:15:00Z,29.2533,-90.6633,1.28,14.77,1111122 
LUMCON,ioos:station:LUMCON:101:1,2015-10-01T06:30:00Z,29.2533,-90.6633,1.27,14.74,1111122 
LUMCON,ioos:station:LUMCON:101:1,2015-10-01T06:45:00Z,29.2533,-90.6633,1.27,14.71,1111122 
LUMCON,ioos:station:LUMCON:101:1,2015-10-01T07:00:00Z,29.2533,-90.6633,1.27,14.83,1111122 
LUMCON,ioos:station:LUMCON:101:1,2015-10-01T07:15:00Z,29.2533,-90.6633,1.26,14.82,1111122 
LUMCON,ioos:station:LUMCON:101:1,2015-10-01T07:30:00Z,29.2533,-90.6633,1.26,14.67,1111122 
LUMCON,ioos:station:LUMCON:101:1,2015-10-01T07:45:00Z,29.2533,-90.6633,1.25,14.78,1111122 
LUMCON,ioos:station:LUMCON:101:1,2015-10-01T08:00:00Z,29.2533,-90.6633,1.25,14.84,1111122 
LUMCON,ioos:station:LUMCON:101:1,2015-10-01T08:15:00Z,29.2533,-90.6633,1.25,14.95,1111122 
LUMCON,ioos:station:LUMCON:101:1,2015-10-01T08:30:00Z,29.2533,-90.6633,1.24,14.94,1111122 
LUMCON,ioos:station:LUMCON:101:1,2015-10-01T08:45:00Z,29.2533,-90.6633,1.23,14.87,1111122 
LUMCON,ioos:station:LUMCON:101:1,2015-10-01T09:00:00Z,29.2533,-90.6633,1.22,14.82,1111122 
LUMCON,ioos:station:LUMCON:101:1,2015-10-01T09:15:00Z,29.2533,-90.6633,1.22,14.76,1111122 
LUMCON,ioos:station:LUMCON:101:1,2015-10-01T09:30:00Z,29.2533,-90.6633,1.21,14.7,1111122 
LUMCON,ioos:station:LUMCON:101:1,2015-10-01T09:45:00Z,29.2533,-90.6633,1.21,14.7,1111122 
LUMCON,ioos:station:LUMCON:101:1,2015-10-01T10:00:00Z,29.2533,-90.6633,1.2,14.43,1111122 
LUMCON,ioos:station:LUMCON:101:1,2015-10-01T10:15:00Z,29.2533,-90.6633,1.19,14.55,1111122 
LUMCON,ioos:station:LUMCON:101:1,2015-10-01T10:30:00Z,29.2533,-90.6633,1.19,14.4,1111122 
LUMCON,ioos:station:LUMCON:101:1,2015-10-01T10:45:00Z,29.2533,-90.6633,1.18,14.28,1111122 
LUMCON,ioos:station:LUMCON:101:1,2015-10-01T11:00:00Z,29.2533,-90.6633,1.17,14.12,1111122 
LUMCON,ioos:station:LUMCON:101:1,2015-10-01T11:15:00Z,29.2533,-90.6633,1.16,13.7,1111122 
LUMCON,ioos:station:LUMCON:101:1,2015-10-01T11:30:00Z,29.2533,-90.6633,1.15,13.59,1111122 
LUMCON,ioos:station:LUMCON:101:1,2015-10-01T11:45:00Z,29.2533,-90.6633,1.14,13.58,1111122 
LUMCON,ioos:station:LUMCON:101:1,2015-10-01T12:00:00Z,29.2533,-90.6633,1.14,13.5,1111122 
LUMCON,ioos:station:LUMCON:101:1,2015-10-01T12:15:00Z,29.2533,-90.6633,1.13,13.52,1111122 
LUMCON,ioos:station:LUMCON:101:1,2015-10-01T12:30:00Z,29.2533,-90.6633,1.12,13.24,1111122 
LUMCON,ioos:station:LUMCON:101:1,2015-10-01T12:45:00Z,29.2533,-90.6633,1.11,13.16,1111122 
LUMCON,ioos:station:LUMCON:101:1,2015-10-01T13:00:00Z,29.2533,-90.6633,1.09,13.0,1111122 
LUMCON,ioos:station:LUMCON:101:1,2015-10-01T13:15:00Z,29.2533,-90.6633,1.09,12.91,1111122 
LUMCON,ioos:station:LUMCON:101:1,2015-10-01T13:30:00Z,29.2533,-90.6633,1.07,12.72,1111122 
LUMCON,ioos:station:LUMCON:101:1,2015-10-01T13:45:00Z,29.2533,-90.6633,1.06,12.69,1111122 
LUMCON,ioos:station:LUMCON:101:1,2015-10-01T14:00:00Z,29.2533,-90.6633,1.05,12.65,1111122 
LUMCON,ioos:station:LUMCON:101:1,2015-10-01T14:15:00Z,29.2533,-90.6633,1.04,12.44,1111122 
LUMCON,ioos:station:LUMCON:101:1,2015-10-01T14:30:00Z,29.2533,-90.6633,1.03,12.72,1111122 
LUMCON,ioos:station:LUMCON:101:1,2015-10-01T14:45:00Z,29.2533,-90.6633,1.03,12.52,1111122 
LUMCON,ioos:station:LUMCON:101:1,2015-10-01T15:00:00Z,29.2533,-90.6633,1.02,12.54,1111122 
LUMCON,ioos:station:LUMCON:101:1,2015-10-01T15:15:00Z,29.2533,-90.6633,1.01,12.51,1111122 
LUMCON,ioos:station:LUMCON:101:1,2015-10-01T15:30:00Z,29.2533,-90.6633,1.0,12.38,1111122 
LUMCON,ioos:station:LUMCON:101:1,2015-10-01T15:45:00Z,29.2533,-90.6633,0.99,12.43,1111122 
LUMCON,ioos:station:LUMCON:101:1,2015-10-01T16:00:00Z,29.2533,-90.6633,0.99,12.22,1111122 
LUMCON,ioos:station:LUMCON:101:1,2015-10-01T16:15:00Z,29.2533,-90.6633,0.98,12.16,1111122 
LUMCON,ioos:station:LUMCON:101:1,2015-10-01T16:30:00Z,29.2533,-90.6633,0.98,12.1,1111122 
LUMCON,ioos:station:LUMCON:101:1,2015-10-01T16:45:00Z,29.2533,-90.6633,0.97,12.02,1111122 
LUMCON,ioos:station:LUMCON:101:1,2015-10-01T17:00:00Z,29.2533,-90.6633,0.97,12.0,1111122 
LUMCON,ioos:station:LUMCON:101:1,2015-10-01T17:15:00Z,29.2533,-90.6633,0.97,11.96,1111122 
LUMCON,ioos:station:LUMCON:101:1,2015-10-01T17:30:00Z,29.2533,-90.6633,0.96,11.91,1111122 
LUMCON,ioos:station:LUMCON:101:1,2015-10-01T17:45:00Z,29.2533,-90.6633,0.96,11.92,1111122 
LUMCON,ioos:station:LUMCON:101:1,2015-10-01T18:00:00Z,29.2533,-90.6633,0.96,11.89,1111122 
LUMCON,ioos:station:LUMCON:101:1,2015-10-01T18:15:00Z,29.2533,-90.6633,0.96,12.0,1111122 
LUMCON,ioos:station:LUMCON:101:1,2015-10-01T18:30:00Z,29.2533,-90.6633,0.96,12.03,1111122 
LUMCON,ioos:station:LUMCON:101:1,2015-10-01T18:45:00Z,29.2533,-90.6633,0.97,12.11,1111122 
LUMCON,ioos:station:LUMCON:101:1,2015-10-01T19:00:00Z,29.2533,-90.6633,0.98,12.04,1111122 
LUMCON,ioos:station:LUMCON:101:1,2015-10-01T19:15:00Z,29.2533,-90.6633,0.98,12.04,1111122 
LUMCON,ioos:station:LUMCON:101:1,2015-10-01T19:30:00Z,29.2533,-90.6633,0.98,11.9,1111122 
LUMCON,ioos:station:LUMCON:101:1,2015-10-01T19:45:00Z,29.2533,-90.6633,0.98,11.9,1111122 
LUMCON,ioos:station:LUMCON:101:1,2015-10-01T20:00:00Z,29.2533,-90.6633,0.98,11.81,1111122 
LUMCON,ioos:station:LUMCON:101:1,2015-10-01T20:15:00Z,29.2533,-90.6633,0.98,12.26,1111122 
LUMCON,ioos:station:LUMCON:101:1,2015-10-01T20:30:00Z,29.2533,-90.6633,0.99,12.86,1111122 
LUMCON,ioos:station:LUMCON:101:1,2015-10-01T20:45:00Z,29.2533,-90.6633,1.02,13.52,1111122 
LUMCON,ioos:station:LUMCON:101:1,2015-10-01T21:00:00Z,29.2533,-90.6633,1.03,13.54,1111122 
LUMCON,ioos:station:LUMCON:101:1,2015-10-01T21:15:00Z,29.2533,-90.6633,1.04,13.23,1111122 
LUMCON,ioos:station:LUMCON:101:1,2015-10-01T21:30:00Z,29.2533,-90.6633,1.05,13.38,1111122 
LUMCON,ioos:station:LUMCON:101:1,2015-10-01T21:45:00Z,29.2533,-90.6633,1.05,13.48,1111122 
LUMCON,ioos:station:LUMCON:101:1,2015-10-01T22:00:00Z,29.2533,-90.6633,1.06,13.22,1111122 
LUMCON,ioos:station:LUMCON:101:1,2015-10-01T22:15:00Z,29.2533,-90.6633,1.06,13.18,1111122 
LUMCON,ioos:station:LUMCON:101:1,2015-10-01T22:30:00Z,29.2533,-90.6633,1.07,13.25,1111122 
LUMCON,ioos:station:LUMCON:101:1,2015-10-01T22:45:00Z,29.2533,-90.6633,1.08,13.41,1111122 
LUMCON,ioos:station:LUMCON:101:1,2015-10-01T23:00:00Z,29.2533,-90.6633,1.09,13.6,1111122 
LUMCON,ioos:station:LUMCON:101:1,2015-10-01T23:15:00Z,29.2533,-90.6633,1.1,13.75,1111122 
LUMCON,ioos:station:LUMCON:101:1,2015-10-01T23:30:00Z,29.2533,-90.6633,1.11,13.66,1111122 
LUMCON,ioos:station:LUMCON:101:1,2015-10-01T23:45:00Z,29.2533,-90.6633,1.11,13.77,1111122 
LUMCON,ioos:station:LUMCON:101:1,2015-10-02T05:00:00Z,29.2533,-90.6633,1.15,13.77,1111122 
LUMCON,ioos:station:LUMCON:101:1,2015-10-02T05:15:00Z,29.2533,-90.6633,1.15,14.04,1111122 
LUMCON,ioos:station:LUMCON:101:1,2015-10-02T05:30:00Z,29.2533,-90.6633,1.14,13.73,1111122 
LUMCON,ioos:station:LUMCON:101:1,2015-10-02T05:45:00Z,29.2533,-90.6633,1.14,13.86,1111122 
LUMCON,ioos:station:LUMCON:101:1,2015-10-02T06:00:00Z,29.2533,-90.6633,1.13,13.96,1111122 
LUMCON,ioos:station:LUMCON:101:1,2015-10-02T06:15:00Z,29.2533,-90.6633,1.14,13.92,1111122 
LUMCON,ioos:station:LUMCON:101:1,2015-10-02T06:30:00Z,29.2533,-90.6633,1.13,13.81,1111122 
LUMCON,ioos:station:LUMCON:101:1,2015-10-02T06:45:00Z,29.2533,-90.6633,1.13,13.72,1111122 
LUMCON,ioos:station:LUMCON:101:1,2015-10-02T07:00:00Z,29.2533,-90.6633,1.12,13.37,1111122 
LUMCON,ioos:station:LUMCON:101:1,2015-10-02T07:15:00Z,29.2533,-90.6633,1.12,13.38,1111122 
LUMCON,ioos:station:LUMCON:101:1,2015-10-02T07:30:00Z,29.2533,-90.6633,1.11,13.5,1111122 
LUMCON,ioos:station:LUMCON:101:1,2015-10-02T07:45:00Z,29.2533,-90.6633,1.12,13.39,1111122 
LUMCON,ioos:station:LUMCON:101:1,2015-10-02T08:00:00Z,29.2533,-90.6633,1.13,13.35,1111122 
LUMCON,ioos:station:LUMCON:101:1,2015-10-02T08:15:00Z,29.2533,-90.6633,1.13,13.32,1111122 
LUMCON,ioos:station:LUMCON:101:1,2015-10-02T08:30:00Z,29.2533,-90.6633,1.13,13.63,1111122 
LUMCON,ioos:station:LUMCON:101:1,2015-10-02T08:45:00Z,29.2533,-90.6633,1.13,13.62,1111122 
LUMCON,ioos:station:LUMCON:101:1,2015-10-02T09:00:00Z,29.2533,-90.6633,1.13,13.61,1111122 
LUMCON,ioos:station:LUMCON:101:1,2015-10-02T09:15:00Z,29.2533,-90.6633,1.14,13.57,1111122 
LUMCON,ioos:station:LUMCON:101:1,2015-10-02T09:30:00Z,29.2533,-90.6633,1.15,13.58,1111122 
LUMCON,ioos:station:LUMCON:101:1,2015-10-02T09:45:00Z,29.2533,-90.6633,1.16,13.57,1111122 
LUMCON,ioos:station:LUMCON:101:1,2015-10-02T10:00:00Z,29.2533,-90.6633,1.16,13.75,1111122 
LUMCON,ioos:station:LUMCON:101:1,2015-10-02T10:15:00Z,29.2533,-90.6633,1.16,13.66,1111122 
LUMCON,ioos:station:LUMCON:101:1,2015-10-02T10:30:00Z,29.2533,-90.6633,1.15,13.82,1111122 
LUMCON,ioos:station:LUMCON:101:1,2015-10-02T10:45:00Z,29.2533,-90.6633,1.15,13.87,1111122 
LUMCON,ioos:station:LUMCON:101:1,2015-10-02T11:00:00Z,29.2533,-90.6633,1.14,14.0,1111122 
LUMCON,ioos:station:LUMCON:101:1,2015-10-02T11:15:00Z,29.2533,-90.6633,1.14,13.88,1111122 
LUMCON,ioos:station:LUMCON:101:1,2015-10-02T11:30:00Z,29.2533,-90.6633,1.14,13.84,1111122 
LUMCON,ioos:station:LUMCON:101:1,2015-10-02T11:45:00Z,29.2533,-90.6633,1.14,13.73,1111122 
LUMCON,ioos:station:LUMCON:101:1,2015-10-02T12:00:00Z,29.2533,-90.6633,1.13,13.61,1111122 
LUMCON,ioos:station:LUMCON:101:1,2015-10-02T12:15:00Z,29.2533,-90.6633,1.12,13.53,1111122 
LUMCON,ioos:station:LUMCON:101:1,2015-10-02T12:30:00Z,29.2533,-90.6633,1.11,13.44,1111122 
LUMCON,ioos:station:LUMCON:101:1,2015-10-02T12:45:00Z,29.2533,-90.6633,1.1,13.29,1111122 
LUMCON,ioos:station:LUMCON:101:1,2015-10-02T13:00:00Z,29.2533,-90.6633,1.09,13.11,1111122 
LUMCON,ioos:station:LUMCON:101:1,2015-10-02T13:15:00Z,29.2533,-90.6633,1.08,13.1,1111122 
LUMCON,ioos:station:LUMCON:101:1,2015-10-02T13:30:00Z,29.2533,-90.6633,1.06,12.98,1111122 
LUMCON,ioos:station:LUMCON:101:1,2015-10-02T13:45:00Z,29.2533,-90.6633,1.05,12.88,1111122 
LUMCON,ioos:station:LUMCON:101:1,2015-10-02T14:00:00Z,29.2533,-90.6633,1.03,12.85,1111122 
LUMCON,ioos:station:LUMCON:101:1,2015-10-02T14:15:00Z,29.2533,-90.6633,1.02,12.8,1111122 
LUMCON,ioos:station:LUMCON:101:1,2015-10-02T14:30:00Z,29.2533,-90.6633,1.01,12.71,1111122 
LUMCON,ioos:station:LUMCON:101:1,2015-10-02T14:45:00Z,29.2533,-90.6633,1.0,12.54,1111122 
LUMCON,ioos:station:LUMCON:101:1,2015-10-02T15:00:00Z,29.2533,-90.6633,1.0,12.5,1111122 
LUMCON,ioos:station:LUMCON:101:1,2015-10-02T15:15:00Z,29.2533,-90.6633,0.98,12.34,1111122 
LUMCON,ioos:station:LUMCON:101:1,2015-10-02T15:30:00Z,29.2533,-90.6633,0.98,12.27,1111122 
LUMCON,ioos:station:LUMCON:101:1,2015-10-02T15:45:00Z,29.2533,-90.6633,0.97,12.15,1111122 
LUMCON,ioos:station:LUMCON:101:1,2015-10-02T16:00:00Z,29.2533,-90.6633,0.96,11.75,1111122 
LUMCON,ioos:station:LUMCON:101:1,2015-10-02T16:15:00Z,29.2533,-90.6633,0.95,11.69,1111122 
LUMCON,ioos:station:LUMCON:101:1,2015-10-02T16:30:00Z,29.2533,-90.6633,0.94,11.68,1111122 
LUMCON,ioos:station:LUMCON:101:1,2015-10-02T16:45:00Z,29.2533,-90.6633,0.94,11.69,1111122 
LUMCON,ioos:station:LUMCON:101:1,2015-10-02T17:00:00Z,29.2533,-90.6633,0.93,11.66,1111122 
LUMCON,ioos:station:LUMCON:101:1,2015-10-02T17:15:00Z,29.2533,-90.6633,0.92,11.56,1111122 
LUMCON,ioos:station:LUMCON:101:1,2015-10-02T17:30:00Z,29.2533,-90.6633,0.92,11.55,1111122 
LUMCON,ioos:station:LUMCON:101:1,2015-10-02T17:45:00Z,29.2533,-90.6633,0.92,11.63,1111122 
LUMCON,ioos:station:LUMCON:101:1,2015-10-02T18:00:00Z,29.2533,-90.6633,0.91,11.54,1111122 
LUMCON,ioos:station:LUMCON:101:1,2015-10-02T18:15:00Z,29.2533,-90.6633,0.9,11.56,1111122 
LUMCON,ioos:station:LUMCON:101:1,2015-10-02T18:30:00Z,29.2533,-90.6633,0.9,11.7,1111122 
LUMCON,ioos:station:LUMCON:101:1,2015-10-02T18:45:00Z,29.2533,-90.6633,0.91,11.69,1111122 
LUMCON,ioos:station:LUMCON:101:1,2015-10-02T19:00:00Z,29.2533,-90.6633,0.92,11.69,1111122 
LUMCON,ioos:station:LUMCON:101:1,2015-10-02T19:15:00Z,29.2533,-90.6633,0.92,11.72,1111122 
LUMCON,ioos:station:LUMCON:101:1,2015-10-02T19:30:00Z,29.2533,-90.6633,0.93,11.62,1111122 
LUMCON,ioos:station:LUMCON:101:1,2015-10-02T19:45:00Z,29.2533,-90.6633,0.93,11.61,1111122 
LUMCON,ioos:station:LUMCON:101:1,2015-10-02T20:00:00Z,29.2533,-90.6633,0.94,11.83,1111122 
LUMCON,ioos:station:LUMCON:101:1,2015-10-02T20:15:00Z,29.2533,-90.6633,0.94,12.73,1111122 
LUMCON,ioos:station:LUMCON:101:1,2015-10-02T20:30:00Z,29.2533,-90.6633,0.94,12.6,1111122 
LUMCON,ioos:station:LUMCON:101:1,2015-10-02T20:45:00Z,29.2533,-90.6633,0.95,12.52,1111122 
LUMCON,ioos:station:LUMCON:101:1,2015-10-02T21:00:00Z,29.2533,-90.6633,0.96,12.61,1111122 
LUMCON,ioos:station:LUMCON:101:1,2015-10-02T21:15:00Z,29.2533,-90.6633,0.96,12.48,1111122 
LUMCON,ioos:station:LUMCON:101:1,2015-10-02T21:30:00Z,29.2533,-90.6633,0.97,12.45,1111122 
LUMCON,ioos:station:LUMCON:101:1,2015-10-02T21:45:00Z,29.2533,-90.6633,0.99,12.49,1111122 
LUMCON,ioos:station:LUMCON:101:1,2015-10-02T22:00:00Z,29.2533,-90.6633,1.0,12.51,1111122 
LUMCON,ioos:station:LUMCON:101:1,2015-10-02T22:15:00Z,29.2533,-90.6633,1.01,12.51,1111122 
LUMCON,ioos:station:LUMCON:101:1,2015-10-02T22:30:00Z,29.2533,-90.6633,1.03,12.62,1111122 
LUMCON,ioos:station:LUMCON:101:1,2015-10-02T22:45:00Z,29.2533,-90.6633,1.05,12.54,1111122 
LUMCON,ioos:station:LUMCON:101:1,2015-10-02T23:00:00Z,29.2533,-90.6633,1.06,12.19,1111122 
LUMCON,ioos:station:LUMCON:101:1,2015-10-02T23:15:00Z,29.2533,-90.6633,1.07,12.29,1111122 
LUMCON,ioos:station:LUMCON:101:1,2015-10-02T23:30:00Z,29.2533,-90.6633,1.08,12.54,1111122 
LUMCON,ioos:station:LUMCON:101:1,2015-10-02T23:45:00Z,29.2533,-90.6633,1.09,12.21,1111122 
LUMCON,ioos:station:LUMCON:101:1,2015-10-03T05:00:00Z,29.2533,-90.6633,1.25,13.69,1111122 
LUMCON,ioos:station:LUMCON:101:1,2015-10-03T05:15:00Z,29.2533,-90.6633,1.26,13.86,1111122 
LUMCON,ioos:station:LUMCON:101:1,2015-10-03T05:30:00Z,29.2533,-90.6633,1.26,13.93,1111122 
LUMCON,ioos:station:LUMCON:101:1,2015-10-03T05:45:00Z,29.2533,-90.6633,1.26,13.52,1111122 
LUMCON,ioos:station:LUMCON:101:1,2015-10-03T06:00:00Z,29.2533,-90.6633,1.26,13.83,1111122 
LUMCON,ioos:station:LUMCON:101:1,2015-10-03T06:15:00Z,29.2533,-90.6633,1.26,13.74,1111122 
LUMCON,ioos:station:LUMCON:101:1,2015-10-03T06:30:00Z,29.2533,-90.6633,1.26,13.8,1111122 
LUMCON,ioos:station:LUMCON:101:1,2015-10-03T06:45:00Z,29.2533,-90.6633,1.27,13.62,1111122 
LUMCON,ioos:station:LUMCON:101:1,2015-10-03T07:00:00Z,29.2533,-90.6633,1.27,13.96,1111122 
LUMCON,ioos:station:LUMCON:101:1,2015-10-03T07:15:00Z,29.2533,-90.6633,1.27,14.07,1111122 
LUMCON,ioos:station:LUMCON:101:1,2015-10-03T07:30:00Z,29.2533,-90.6633,1.27,14.08,1111122 
LUMCON,ioos:station:LUMCON:101:1,2015-10-03T07:45:00Z,29.2533,-90.6633,1.28,14.08,1111122 
LUMCON,ioos:station:LUMCON:101:1,2015-10-03T08:00:00Z,29.2533,-90.6633,1.28,14.03,1111122 
LUMCON,ioos:station:LUMCON:101:1,2015-10-03T08:15:00Z,29.2533,-90.6633,1.28,14.08,1111122 
LUMCON,ioos:station:LUMCON:101:1,2015-10-03T08:30:00Z,29.2533,-90.6633,1.29,13.98,1111122 
LUMCON,ioos:station:LUMCON:101:1,2015-10-03T08:45:00Z,29.2533,-90.6633,1.29,14.2,1111122 
LUMCON,ioos:station:LUMCON:101:1,2015-10-03T09:00:00Z,29.2533,-90.6633,1.29,13.83,1111122 
LUMCON,ioos:station:LUMCON:101:1,2015-10-03T09:15:00Z,29.2533,-90.6633,1.29,14.38,1111122 
LUMCON,ioos:station:LUMCON:101:1,2015-10-03T09:30:00Z,29.2533,-90.6633,1.29,14.38,1111122 
LUMCON,ioos:station:LUMCON:101:1,2015-10-03T09:45:00Z,29.2533,-90.6633,1.29,14.33,1111122 
LUMCON,ioos:station:LUMCON:101:1,2015-10-03T10:00:00Z,29.2533,-90.6633,1.29,14.14,1111122 
LUMCON,ioos:station:LUMCON:101:1,2015-10-03T10:15:00Z,29.2533,-90.6633,1.29,14.49,1111122 
LUMCON,ioos:station:LUMCON:101:1,2015-10-03T10:30:00Z,29.2533,-90.6633,1.29,14.22,1111122 
LUMCON,ioos:station:LUMCON:101:1,2015-10-03T10:45:00Z,29.2533,-90.6633,1.29,14.38,1111122 
LUMCON,ioos:station:LUMCON:101:1,2015-10-03T11:00:00Z,29.2533,-90.6633,1.28,14.75,1111122 
LUMCON,ioos:station:LUMCON:101:1,2015-10-03T11:15:00Z,29.2533,-90.6633,1.28,14.5,1111122 
LUMCON,ioos:station:LUMCON:101:1,2015-10-03T11:30:00Z,29.2533,-90.6633,1.27,14.45,1111122 
LUMCON,ioos:station:LUMCON:101:1,2015-10-03T11:45:00Z,29.2533,-90.6633,1.26,14.33,1111122 
LUMCON,ioos:station:LUMCON:101:1,2015-10-03T12:00:00Z,29.2533,-90.6633,1.25,14.25,1111122 
LUMCON,ioos:station:LUMCON:101:1,2015-10-03T12:15:00Z,29.2533,-90.6633,1.24,14.18,1111122 
LUMCON,ioos:station:LUMCON:101:1,2015-10-03T12:30:00Z,29.2533,-90.6633,1.23,13.85,1111122 
LUMCON,ioos:station:LUMCON:101:1,2015-10-03T12:45:00Z,29.2533,-90.6633,1.22,13.8,1111122 
LUMCON,ioos:station:LUMCON:101:1,2015-10-03T13:00:00Z,29.2533,-90.6633,1.21,14.11,1111122 
LUMCON,ioos:station:LUMCON:101:1,2015-10-03T13:15:00Z,29.2533,-90.6633,1.2,14.01,1111122 
LUMCON,ioos:station:LUMCON:101:1,2015-10-03T13:30:00Z,29.2533,-90.6633,1.19,13.94,1111122 
LUMCON,ioos:station:LUMCON:101:1,2015-10-03T13:45:00Z,29.2533,-90.6633,1.18,13.73,1111122 
LUMCON,ioos:station:LUMCON:101:1,2015-10-03T14:00:00Z,29.2533,-90.6633,1.17,13.49,1111122 
LUMCON,ioos:station:LUMCON:101:1,2015-10-03T14:15:00Z,29.2533,-90.6633,1.15,13.45,1111122 
LUMCON,ioos:station:LUMCON:101:1,2015-10-03T14:30:00Z,29.2533,-90.6633,1.15,13.38,1111122 
LUMCON,ioos:station:LUMCON:101:1,2015-10-03T14:45:00Z,29.2533,-90.6633,1.13,13.2,1111122 
LUMCON,ioos:station:LUMCON:101:1,2015-10-03T15:00:00Z,29.2533,-90.6633,1.12,13.16,1111122 
LUMCON,ioos:station:LUMCON:101:1,2015-10-03T15:15:00Z,29.2533,-90.6633,1.11,13.07,1111122 
LUMCON,ioos:station:LUMCON:101:1,2015-10-03T15:30:00Z,29.2533,-90.6633,1.1,12.96,1111122 
LUMCON,ioos:station:LUMCON:101:1,2015-10-03T15:45:00Z,29.2533,-90.6633,1.08,12.85,1111122 
LUMCON,ioos:station:LUMCON:101:1,2015-10-03T16:00:00Z,29.2533,-90.6633,1.07,12.81,1111122 
LUMCON,ioos:station:LUMCON:101:1,2015-10-03T17:15:00Z,29.2533,-90.6633,1.02,12.43,1111122 
LUMCON,ioos:station:LUMCON:101:1,2015-10-03T17:30:00Z,29.2533,-90.6633,1.0,12.37,1111122 
LUMCON,ioos:station:LUMCON:101:1,2015-10-03T18:45:00Z,29.2533,-90.6633,0.95,12.04,1111122 
LUMCON,ioos:station:LUMCON:101:1,2015-10-03T19:00:00Z,29.2533,-90.6633,0.95,11.95,1111122 
LUMCON,ioos:station:LUMCON:101:1,2015-10-03T19:15:00Z,29.2533,-90.6633,0.93,11.89,1111122 
LUMCON,ioos:station:LUMCON:101:1,2015-10-03T19:30:00Z,29.2533,-90.6633,0.92,11.85,1111122 
LUMCON,ioos:station:LUMCON:101:1,2015-10-03T19:45:00Z,29.2533,-90.6633,0.92,11.78,1111122 
LUMCON,ioos:station:LUMCON:101:1,2015-10-03T20:00:00Z,29.2533,-90.6633,0.92,11.76,1111122 
LUMCON,ioos:station:LUMCON:101:1,2015-10-03T20:15:00Z,29.2533,-90.6633,0.91,12.02,1111122 
LUMCON,ioos:station:LUMCON:101:1,2015-10-03T20:30:00Z,29.2533,-90.6633,0.91,11.83,1111122 
LUMCON,ioos:station:LUMCON:101:1,2015-10-03T20:45:00Z,29.2533,-90.6633,0.92,11.79,1111122 
LUMCON,ioos:station:LUMCON:101:1,2015-10-03T21:00:00Z,29.2533,-90.6633,0.91,11.9,1111122 
LUMCON,ioos:station:LUMCON:101:1,2015-10-03T21:15:00Z,29.2533,-90.6633,0.9,11.82,1111122 
LUMCON,ioos:station:LUMCON:101:1,2015-10-03T21:30:00Z,29.2533,-90.6633,0.91,11.84,1111122 
LUMCON,ioos:station:LUMCON:101:1,2015-10-03T21:45:00Z,29.2533,-90.6633,0.9,11.87,1111122 
LUMCON,ioos:station:LUMCON:101:1,2015-10-03T22:00:00Z,29.2533,-90.6633,0.9,11.8,1111122 
LUMCON,ioos:station:LUMCON:101:1,2015-10-03T22:15:00Z,29.2533,-90.6633,0.9,11.77,1111122 
LUMCON,ioos:station:LUMCON:101:1,2015-10-03T22:30:00Z,29.2533,-90.6633,0.9,11.83,1111122 
LUMCON,ioos:station:LUMCON:101:1,2015-10-03T22:45:00Z,29.2533,-90.6633,0.91,11.78,1111122 
LUMCON,ioos:station:LUMCON:101:1,2015-10-03T23:00:00Z,29.2533,-90.6633,0.93,11.71,1111122 
LUMCON,ioos:station:LUMCON:101:1,2015-10-03T23:15:00Z,29.2533,-90.6633,0.94,11.75,1111122 
LUMCON,ioos:station:LUMCON:101:1,2015-10-03T23:30:00Z,29.2533,-90.6633,0.94,11.97,1111122 
LUMCON,ioos:station:LUMCON:101:1,2015-10-03T23:45:00Z,29.2533,-90.6633,0.94,12.15,1111122 
LUMCON,ioos:station:LUMCON:101:1,2015-10-04T05:00:00Z,29.2533,-90.6633,1.09,13.21,1111122 
LUMCON,ioos:station:LUMCON:101:1,2015-10-04T05:15:00Z,29.2533,-90.6633,1.1,13.42,1111122 
LUMCON,ioos:station:LUMCON:101:1,2015-10-04T05:30:00Z,29.2533,-90.6633,1.1,13.35,1111122 
LUMCON,ioos:station:LUMCON:101:1,2015-10-04T05:45:00Z,29.2533,-90.6633,1.11,13.25,1111122 
LUMCON,ioos:station:LUMCON:101:1,2015-10-04T06:00:00Z,29.2533,-90.6633,1.12,13.36,1111122 
LUMCON,ioos:station:LUMCON:101:1,2015-10-04T06:15:00Z,29.2533,-90.6633,1.12,13.3,1111122 
LUMCON,ioos:station:LUMCON:101:1,2015-10-04T06:30:00Z,29.2533,-90.6633,1.13,13.34,1111122 
LUMCON,ioos:station:LUMCON:101:1,2015-10-04T06:45:00Z,29.2533,-90.6633,1.13,13.63,1111122 
LUMCON,ioos:station:LUMCON:101:1,2015-10-04T07:00:00Z,29.2533,-90.6633,1.14,13.29,1111122 
LUMCON,ioos:station:LUMCON:101:1,2015-10-04T07:15:00Z,29.2533,-90.6633,1.14,13.26,1111122 
LUMCON,ioos:station:LUMCON:101:1,2015-10-04T07:30:00Z,29.2533,-90.6633,1.15,13.42,1111122 
LUMCON,ioos:station:LUMCON:101:1,2015-10-04T07:45:00Z,29.2533,-90.6633,1.16,13.36,1111122 
LUMCON,ioos:station:LUMCON:101:1,2015-10-04T08:00:00Z,29.2533,-90.6633,1.16,13.43,1111122 
LUMCON,ioos:station:LUMCON:101:1,2015-10-04T08:15:00Z,29.2533,-90.6633,1.17,13.44,1111122 
LUMCON,ioos:station:LUMCON:101:1,2015-10-04T08:30:00Z,29.2533,-90.6633,1.17,13.28,1111122 
LUMCON,ioos:station:LUMCON:101:1,2015-10-04T08:45:00Z,29.2533,-90.6633,1.17,13.38,1111122 
LUMCON,ioos:station:LUMCON:101:1,2015-10-04T09:00:00Z,29.2533,-90.6633,1.17,13.41,1111122 
LUMCON,ioos:station:LUMCON:101:1,2015-10-04T09:15:00Z,29.2533,-90.6633,1.18,13.47,1111122 
LUMCON,ioos:station:LUMCON:101:1,2015-10-04T09:30:00Z,29.2533,-90.6633,1.18,13.46,1111122 
LUMCON,ioos:station:LUMCON:101:1,2015-10-04T09:45:00Z,29.2533,-90.6633,1.18,13.49,1111122 
LUMCON,ioos:station:LUMCON:101:1,2015-10-04T10:00:00Z,29.2533,-90.6633,1.18,13.35,1111122 
LUMCON,ioos:station:LUMCON:101:1,2015-10-04T10:15:00Z,29.2533,-90.6633,1.18,13.44,1111122 
LUMCON,ioos:station:LUMCON:101:1,2015-10-04T10:30:00Z,29.2533,-90.6633,1.18,13.38,1111122 
LUMCON,ioos:station:LUMCON:101:1,2015-10-04T10:45:00Z,29.2533,-90.6633,1.18,13.31,1111122 
LUMCON,ioos:station:LUMCON:101:1,2015-10-04T11:00:00Z,29.2533,-90.6633,1.19,13.77,1111122 
LUMCON,ioos:station:LUMCON:101:1,2015-10-04T11:15:00Z,29.2533,-90.6633,1.19,13.58,1111122 
LUMCON,ioos:station:LUMCON:101:1,2015-10-04T11:30:00Z,29.2533,-90.6633,1.19,13.39,1111122 
LUMCON,ioos:station:LUMCON:101:1,2015-10-04T11:45:00Z,29.2533,-90.6633,1.19,13.63,1111122 
LUMCON,ioos:station:LUMCON:101:1,2015-10-04T12:00:00Z,29.2533,-90.6633,1.18,13.37,1111122 
LUMCON,ioos:station:LUMCON:101:1,2015-10-04T12:15:00Z,29.2533,-90.6633,1.18,13.36,1111122 
LUMCON,ioos:station:LUMCON:101:1,2015-10-04T12:30:00Z,29.2533,-90.6633,1.17,13.56,1111122 
LUMCON,ioos:station:LUMCON:101:1,2015-10-04T12:45:00Z,29.2533,-90.6633,1.17,13.57,1111122 
LUMCON,ioos:station:LUMCON:101:1,2015-10-04T13:00:00Z,29.2533,-90.6633,1.16,13.52,1111122 
LUMCON,ioos:station:LUMCON:101:1,2015-10-04T13:15:00Z,29.2533,-90.6633,1.14,13.54,1111122 
LUMCON,ioos:station:LUMCON:101:1,2015-10-04T13:30:00Z,29.2533,-90.6633,1.14,13.5,1111122 
LUMCON,ioos:station:LUMCON:101:1,2015-10-04T13:45:00Z,29.2533,-90.6633,1.14,13.47,1111122 
LUMCON,ioos:station:LUMCON:101:1,2015-10-04T14:00:00Z,29.2533,-90.6633,1.12,13.43,1111122 
LUMCON,ioos:station:LUMCON:101:1,2015-10-04T14:15:00Z,29.2533,-90.6633,1.12,13.31,1111122 
LUMCON,ioos:station:LUMCON:101:1,2015-10-04T14:30:00Z,29.2533,-90.6633,1.11,13.31,1111122 
LUMCON,ioos:station:LUMCON:101:1,2015-10-04T14:45:00Z,29.2533,-90.6633,1.1,13.62,1111122 
LUMCON,ioos:station:LUMCON:101:1,2015-10-04T15:00:00Z,29.2533,-90.6633,1.09,13.22,1111122 
LUMCON,ioos:station:LUMCON:101:1,2015-10-04T15:15:00Z,29.2533,-90.6633,1.08,13.23,1111122 
LUMCON,ioos:station:LUMCON:101:1,2015-10-04T15:30:00Z,29.2533,-90.6633,1.07,13.26,1111122 